Погода в Варегово

Россия / Ярославская область     57°46′35″N   39°16′53″E
темп.,
°C
ветер,
м/с
пор.,
м/с
влажн.,
%
обл.,
%
осадки,
мм/ч
давл.,
гПа
погр.,
м
17 апреля, сб
сб1700:00+6всв5127442 0.0 1027499
03:00+5всв513799 0.0 1027424
06:00+4всв413785 0.0 1028420
09:00+8в59584 0.0 1028570
12:00+11в68415 0.0 1028969
15:00+13всв57343 0.0 10271194
18:00+12всв48435 0.0 1026977
21:00+8всв412620 0.0 1027433
18 апреля, вс
вс1800:00+6всв412710 0.0 1027383
03:00+4всв412750 0.0 1028363
06:00+3всв412800 0.0 1027392
09:00+8всв510600 0.0 1027870
12:00+11в58445 0.0 10271637
15:00+13всв68428 0.0 10271917
18:00+11всв5952100 0.0 10271292
21:00+8всв51166100 0.0 1028697
19 апреля, пн
пн1900:00+6всв497899 0.0 1029595
03:00+4всв4983100 0.0 1030488
06:00+3всв4108043 0.0 1030470
09:00+5в58545 0.0 1030795
12:00+8в58415 0.0 10301465
15:00+10в573749 0.0 10291771
18:00+9в574342 0.0 10291735
21:00+6в51147100 0.0 1029653
20 апреля, вт
вт2000:00+3в513550 0.0 1029526
03:00+2в41261100 0.0 1029464
06:00+1в4126498 0.0 1029477
09:00+4в61156100 0.0 1027699
12:00+9вюв71148100 0.0 10261573
15:00+9вюв71251100 0.0 10231292
18:00+9вюв71552100 0.0 10201377
21:00+8вюв81652100 0.0 10181167
21 апреля, ср
ср2100:00+6в81763100 0.5 10141049
03:00+4вюв81884100 1.8 10111081
06:00+4вюв71691100 1.8 10091070
09:00+6вюв71589100 4.5 10071024
12:00+7юв71691100 0.4 10061336
15:00+8юв71490100 1.2 10061425
18:00+7ю61078100 0.4 10101259
21:00+6ююв6148474 0.4 1012737